Voltar ao catálogo

STARLINK-5373

AtivoComunicaçõesVLEO
NORAD 55490·PAYLOAD·🇺🇸 United States

Lançado Feb 2, 2023 de Cape Canaveral Space Force Station

Loading…

Próximas Passagens (próximas 24 horas)

TLE

AtualizadoSource: CelesTrak SupGP

Época: Sep 15, 2026, 02:41 UTC

1 55490C 23015AT  26258.11229167  .00017133  00000+0  62067-3 0  2582
2 55490  43.0018 349.7116 0001560 264.9839 250.8072 15.27564237    12

Acompanhe STARLINK-5373 em tempo real com AllMySat

Download on the App Store